This demonstration page uses our WeatherBlox Daily Observations layout. Learn more.

Left ArrowRight Arrow

Hourly Observations for November 28, 2021

Temp ( °F °C ) Dew Point ( °F °C ) Humidity (%) Winds ( mph kmh ) Pressure ( in mb ) Visibility ( mi km ) Precip ( " mm )
12:15 am 00:15 Clear 36 2 34 1 93 93 W 8 13 29.92 1013 10 16 N/A
12:35 am 00:35 Clear 37 3 34 1 87 87 W 10 17 29.91 1013 10 16 N/A
12:55 am 00:55 Clear 37 3 34 1 87 87 WNW 13 20 29.91 1013 10 16 N/A
1:15 am 01:15 Clear 37 3 34 1 87 87 WNW 9 15 29.92 1013 10 16 N/A
1:35 am 01:35 Clear 37 3 34 1 87 87 WNW 9 15 29.92 1013 10 16 N/A
1:55 am 01:55 Clear 36 2 34 1 93 93 WNW 8 13 29.94 1014 10 16 N/A
2:15 am 02:15 Clear 36 2 34 1 93 93 WNW 8 13 29.95 1014 10 16 N/A
2:35 am 02:35 Clear 34 1 34 1 100 100 WNW 6 9 29.96 1015 10 16 N/A
2:55 am 02:55 Clear 34 1 34 1 100 100 WNW 7 11 29.96 1015 10 16 N/A
3:15 am 03:15 Clear 34 1 34 1 100 100 WNW 10 17 29.98 1015 10 16 N/A
3:35 am 03:35 Clear 34 1 32 undefined 93 93 WNW 9 15 29.98 1015 10 16 N/A
3:55 am 03:55 Clear 32 undefined 32 undefined 100 100 WNW 10 17 29.99 1015 10 16 N/A
4:15 am 04:15 Clear 32 undefined 32 undefined 100 100 WNW 9 15 30.01 1016 10 16 N/A
4:35 am 04:35 Clear 32 undefined 30 -1 93 93 NW 8 13 30.00 1016 10 16 N/A
4:55 am 04:55 Clear 32 undefined 30 -1 93 93 WNW 9 15 30.01 1016 10 16 N/A
5:15 am 05:15 Clear 32 undefined 30 -1 93 93 NW 10 17 30.02 1016 10 16 N/A
5:35 am 05:35 Clear 30 -1 30 -1 100 100 NW 7 11 30.02 1017 10 16 N/A
5:55 am 05:55 Clear 30 -1 28 -2 93 93 WNW 6 9 30.03 1017 10 16 N/A
6:15 am 06:15 Clear 28 -2 28 -2 100 100 WNW 7 11 30.03 1017 10 16 N/A
6:35 am 06:35 Clear 28 -2 28 -2 100 100 W 7 11 30.04 1017 10 16 N/A
6:55 am 06:55 Clear 28 -2 28 -2 100 100 W 6 9 30.05 1018 10 16 N/A
7:15 am 07:15 Clear 27 -3 27 -3 100 100 W 7 11 30.06 1018 10 16 N/A
7:35 am 07:35 Clear 27 -3 27 -3 100 100 W 7 11 30.07 1018 10 16 N/A
7:55 am 07:55 Sunny 27 -3 27 -3 100 100 W 5 7 30.07 1018 10 16 N/A
8:15 am 08:15 Sunny 25 -4 25 -4 100 100 WSW 6 9 30.06 1018 10 16 N/A
8:35 am 08:35 Sunny 28 -2 27 -3 93 93 W 6 9 30.06 1018 10 16 N/A
8:55 am 08:55 Sunny 30 -1 28 -2 93 93 W 5 7 30.06 1018 10 16 N/A
9:15 am 09:15 Sunny 32 undefined 28 -2 87 87 W 8 13 30.07 1018 10 16 N/A
9:35 am 09:35 Sunny 32 undefined 27 -3 80 80 WNW 9 15 30.07 1018 10 16 N/A
9:55 am 09:55 Sunny 34 1 27 -3 75 75 W 10 17 30.06 1018 10 16 N/A
10:15 am 10:15 Sunny 34 1 27 -3 75 75 W 8 13 30.05 1018 10 16 N/A
10:35 am 10:35 Sunny 36 2 28 -2 75 75 W 9 15 30.05 1018 10 16 N/A
10:55 am 10:55 Sunny 36 2 27 -3 70 70 W 12 19 30.06 1018 10 16 N/A
11:15 am 11:15 Sunny 37 3 28 -2 70 70 W 14 22 30.04 1017 10 16 N/A
11:35 am 11:35 Sunny 39 4 28 -2 65 65 W 12 19 30.04 1017 10 16 N/A
11:55 am 11:55 Sunny 39 4 28 -2 65 65 W 12 19 30.04 1017 10 16 N/A
12:15 pm 12:15 Sunny 39 4 27 -3 61 61 WNW 16 26 30.04 1017 10 16 N/A
12:35 pm 12:35 Sunny 39 4 27 -3 61 61 W 20 31 30.04 1017 10 16 N/A
12:55 pm 12:55 Sunny 41 5 25 -4 53 53 W 17 28 30.02 1017 10 16 N/A
1:15 pm 13:15 Sunny 41 5 23 -5 49 49 W 21 33 30.02 1017 10 16 N/A
1:35 pm 13:35 Sunny 41 5 21 -6 45 45 WNW 20 31 30.01 1016 10 16 N/A
1:55 pm 13:55 Sunny 41 5 21 -6 45 45 WNW 18 30 30.01 1016 10 16 N/A
2:15 pm 14:15 Sunny 41 5 21 -6 45 45 WNW 23 37 30.02 1017 10 16 N/A
2:35 pm 14:35 Sunny 41 5 23 -5 49 49 W 24 39 30.02 1017 10 16 N/A
2:55 pm 14:55 Sunny 41 5 21 -6 45 45 WNW 23 37 30.03 1017 10 16 N/A
3:15 pm 15:15 Partly Cloudy 37 3 25 -4 60 60 WNW 18 30 30.04 1017 10 16 N/A
3:35 pm 15:35 Mostly Cloudy 37 3 25 -4 60 60 W 23 37 30.05 1018 10 16 N/A
3:55 pm 15:55 Mostly Cloudy 36 2 25 -4 65 65 NW 16 26 30.07 1018 10 16 N/A
4:15 pm 16:15 Cloudy 36 2 23 -5 60 60 WNW 20 31 30.08 1019 10 16 N/A
4:35 pm 16:35 Cloudy 36 2 23 -5 60 60 NW 17 28 30.09 1019 10 16 N/A
4:55 pm 16:55 Mostly Cloudy 34 1 23 -5 65 65 NW 12 19 30.11 1020 10 16 N/A
5:15 pm 17:15 Cloudy 34 1 23 -5 65 65 NW 14 22 30.11 1020 10 16 N/A
5:35 pm 17:35 Cloudy 34 1 23 -5 65 65 NW 9 15 30.12 1020 10 16 N/A
5:55 pm 17:55 Cloudy 34 1 23 -5 65 65 NW 13 20 30.13 1020 10 16 N/A
6:15 pm 18:15 Cloudy 32 undefined 23 -5 69 69 NW 9 15 30.14 1020 10 16 N/A
6:35 pm 18:35 Mostly Cloudy 32 undefined 23 -5 69 69 NW 8 13 30.14 1020 10 16 N/A
6:55 pm 18:55 Partly Cloudy 30 -1 23 -5 75 75 NW 6 9 30.14 1021 10 16 N/A
7:15 pm 19:15 Clear 30 -1 23 -5 75 75 WNW 5 7 30.15 1021 10 16 N/A
7:35 pm 19:35 Clear 28 -2 23 -5 80 80 W 5 7 30.16 1021 10 16 N/A
7:55 pm 19:55 Clear 28 -2 23 -5 80 80 W 5 7 30.16 1021 10 16 N/A
8:15 pm 20:15 Clear 27 -3 23 -5 86 86 W 5 7 30.17 1022 10 16 N/A
8:35 pm 20:35 Clear 25 -4 21 -6 86 86 W 6 9 30.17 1022 10 16 N/A
8:55 pm 20:55 Clear 25 -4 21 -6 86 86 W 7 11 30.18 1022 10 16 N/A
9:15 pm 21:15 Clear 25 -4 21 -6 86 86 W 8 13 30.18 1022 10 16 N/A
9:35 pm 21:35 Clear 25 -4 21 -6 86 86 W 7 11 30.18 1022 10 16 N/A
9:55 pm 21:55 Clear 25 -4 21 -6 86 86 W 7 11 30.18 1022 10 16 N/A
10:15 pm 22:15 Clear 25 -4 19 -7 80 80 W 7 11 30.18 1022 10 16 N/A
10:35 pm 22:35 Clear 25 -4 19 -7 80 80 W 7 11 30.18 1022 10 16 N/A
10:55 pm 22:55 Clear 25 -4 18 -8 74 74 W 7 11 30.19 1022 10 16 N/A
11:15 pm 23:15 Clear 23 -5 19 -7 86 86 W 7 11 30.19 1022 10 16 N/A
11:35 pm 23:35 Clear 23 -5 18 -8 80 80 W 6 9 30.18 1022 10 16 N/A
11:55 pm 23:55 Clear 23 -5 18 -8 80 80 W 7 11 30.19 1022 10 16 N/A

Powered by AerisWeather